SB KEPS @ AMSAT $ORB13129.O
Orbital Elements 13129.OSCAR
HR AMSAT ORBITAL ELEMENTS FOR OSCAR SATELLITES
FROM WA5QGD FORT WORTH,TX May 9, 2013
BID: ORB13129.O
TO ALL RADIO AMATEURS BT
Satellite: AO-07
Catalog number: 07530
Epoch time: 13129.87667196
Element set: 676
Inclination: 101.4287 deg
RA of node: 120.7767 deg
Eccentricity: 0.0011911
Arg of perigee: 005.7738 deg
Mean anomaly: 032.1452 deg
Mean motion: 12.53596083 rev/day
Decay rate: -4.0e-07 rev/day^2
Epoch rev: 76098
Checksum: 308
Satellite: FO-29
Catalog number: 24278
Epoch time: 13129.77797314
Element set: 112
Inclination: 098.5582 deg
RA of node: 193.4747 deg
Eccentricity: 0.0349497
Arg of perigee: 263.6192 deg
Mean anomaly: 249.3764 deg
Mean motion: 13.52999863 rev/day
Decay rate: -2.0e-07 rev/day^2
Epoch rev: 82611
Checksum: 358
Satellite: SO-33
Catalog number: 25509
Epoch time: 13129.84876833
Element set: 492
Inclination: 031.4341 deg
RA of node: 284.6880 deg
Eccentricity: 0.0351548
Arg of perigee: 182.3423 deg
Mean anomaly: 329.7348 deg
Mean motion: 14.29046538 rev/day
Decay rate: 8.30e-06 rev/day^2
Epoch rev: 75940
Checksum: 330
Satellite: RS-22
Catalog number: 27939
Epoch time: 13129.64625881
Element set: 394
Inclination: 097.7974 deg
RA of node: 319.5089 deg
Eccentricity: 0.0012517
Arg of perigee: 313.6879 deg
Mean anomaly: 046.3286 deg
Mean motion: 14.64423836 rev/day
Decay rate: 9.10e-06 rev/day^2
Epoch rev: 51365
Checksum: 347
Satellite: VO-52
Catalog number: 28650
Epoch time: 13129.49972056
Element set: 417
Inclination: 097.5691 deg
RA of node: 150.0865 deg
Eccentricity: 0.0027011
Arg of perigee: 051.0859 deg
Mean anomaly: 098.1118 deg
Mean motion: 14.83794570 rev/day
Decay rate: 9.64e-06 rev/day^2
Epoch rev: 43334
Checksum: 321
Satellite: HO-68
Catalog number: 36122
Epoch time: 13129.74241122
Element set: 532
Inclination: 100.3093 deg
RA of node: 187.7614 deg
Eccentricity: 0.0007855
Arg of perigee: 082.3763 deg
Mean anomaly: 277.8243 deg
Mean motion: 13.16303812 rev/day
Decay rate: -4.4e-07 rev/day^2
Epoch rev: 16335
Checksum: 280
/EX
SB KEPS @ AMSAT $ORB13129.D
Orbital Elements 13129.MICROS
HR AMSAT ORBITAL ELEMENTS FOR THE MICROSATS
FROM WA5QGD FORT WORTH,TX May 9, 2013
BID: ORB13129.D
TO ALL RADIO AMATEURS BT
Satellite: UO-11
Catalog number: 14781
Epoch time: 13129.32354513
Element set: 174
Inclination: 097.9059 deg
RA of node: 191.1856 deg
Eccentricity: 0.0009868
Arg of perigee: 062.1850 deg
Mean anomaly: 298.0361 deg
Mean motion: 14.80857566 rev/day
Decay rate: 5.45e-06 rev/day^2
Epoch rev: 56818
Checksum: 331
Satellite: AO-16
Catalog number: 20439
Epoch time: 13129.39519851
Element set: 741
Inclination: 098.4691 deg
RA of node: 070.3272 deg
Eccentricity: 0.0009687
Arg of perigee: 272.8974 deg
Mean anomaly: 233.9056 deg
Mean motion: 14.32166887 rev/day
Decay rate: 1.36e-06 rev/day^2
Epoch rev: 21668
Checksum: 338
Satellite: LO-19
Catalog number: 20442
Epoch time: 13129.00382602
Element set: 675
Inclination: 098.4381 deg
RA of node: 071.8562 deg
Eccentricity: 0.0010693
Arg of perigee: 263.5961 deg
Mean anomaly: 159.0046 deg
Mean motion: 14.32378472 rev/day
Decay rate: 1.16e-06 rev/day^2
Epoch rev: 21682
Checksum: 293
Satellite: AO-27
Catalog number: 22825
Epoch time: 13129.84436413
Element set: 379
Inclination: 098.6158 deg
RA of node: 074.2795 deg
Eccentricity: 0.0009077
Arg of perigee: 047.8533 deg
Mean anomaly: 346.0987 deg
Mean motion: 14.29557181 rev/day
Decay rate: 1.14e-06 rev/day^2
Epoch rev: 2315
Checksum: 327
Satellite: IO-26
Catalog number: 22826
Epoch time: 13128.87970163
Element set: 135
Inclination: 098.6099 deg
RA of node: 073.6201 deg
Eccentricity: 0.0009543
Arg of perigee: 043.9047 deg
Mean anomaly: 029.7457 deg
Mean motion: 14.29840373 rev/day
Decay rate: 1.23e-06 rev/day^2
Epoch rev: 2314
Checksum: 302
Satellite: GO-32
Catalog number: 25397
Epoch time: 13128.82883075
Element set: 65
Inclination: 098.4112 deg
RA of node: 098.3066 deg
Eccentricity: 0.0002252
Arg of perigee: 077.1768 deg
Mean anomaly: 010.8055 deg
Mean motion: 14.23337089 rev/day
Decay rate: 7.4e-07 rev/day^2
Epoch rev: 77034
Checksum: 304
Satellite: NO-44
Catalog number: 26931
Epoch time: 13129.70439610
Element set: 323
Inclination: 067.0529 deg
RA of node: 358.7126 deg
Eccentricity: 0.0007075
Arg of perigee: 285.0645 deg
Mean anomaly: 111.5730 deg
Mean motion: 14.29918112 rev/day
Decay rate: 4.9e-07 rev/day^2
Epoch rev: 60592
Checksum: 295
Satellite: SO-50
Catalog number: 27607
Epoch time: 13129.22784704
Element set: 60
Inclination: 064.5583 deg
RA of node: 022.7388 deg
Eccentricity: 0.0049982
Arg of perigee: 176.0821 deg
Mean anomaly: 328.8498 deg
Mean motion: 14.72891920 rev/day
Decay rate: 5.06e-06 rev/day^2
Epoch rev: 55797
Checksum: 340
Satellite: CO-55
Catalog number: 27844
Epoch time: 13128.98284046
Element set: 643
Inclination: 098.7009 deg
RA of node: 138.6260 deg
Eccentricity: 0.0009496
Arg of perigee: 010.2287 deg
Mean anomaly: 022.3157 deg
Mean motion: 14.21204648 rev/day
Decay rate: 2.15e-06 rev/day^2
Epoch rev: 51116
Checksum: 295
Satellite: CO-57
Catalog number: 27848
Epoch time: 13129.56123581
Element set: 589
Inclination: 098.7095 deg
RA of node: 138.6879 deg
Eccentricity: 0.0009576
Arg of perigee: 014.3944 deg
Mean anomaly: 131.6317 deg
Mean motion: 14.20932251 rev/day
Decay rate: 1.71e-06 rev/day^2
Epoch rev: 51117
Checksum: 327
Satellite: AO-51
Catalog number: 28375
Epoch time: 13129.45477196
Element set: 552
Inclination: 098.1981 deg
RA of node: 086.4763 deg
Eccentricity: 0.0084664
Arg of perigee: 132.8532 deg
Mean anomaly: 014.3581 deg
Mean motion: 14.41105150 rev/day
Decay rate: 1.82e-06 rev/day^2
Epoch rev: 46575
Checksum: 316
Satellite: CP3
Catalog number: 31129
Epoch time: 13129.45325872
Element set: 456
Inclination: 097.8961 deg
RA of node: 124.2851 deg
Eccentricity: 0.0100446
Arg of perigee: 187.1150 deg
Mean anomaly: 333.2727 deg
Mean motion: 14.53603980 rev/day
Decay rate: 5.41e-06 rev/day^2
Epoch rev: 32136
Checksum: 287
Satellite: CO-65
Catalog number: 32785
Epoch time: 13129.33201383
Element set: 626
Inclination: 097.7547 deg
RA of node: 187.9700 deg
Eccentricity: 0.0015613
Arg of perigee: 078.3179 deg
Mean anomaly: 344.2188 deg
Mean motion: 14.83795735 rev/day
Decay rate: 1.233e-05 rev/day^2
Epoch rev: 27211
Checksum: 324
Satellite: PRISM
Catalog number: 33493
Epoch time: 13129.83148276
Element set: 788
Inclination: 098.2126 deg
RA of node: 285.5127 deg
Eccentricity: 0.0017180
Arg of perigee: 320.2008 deg
Mean anomaly: 039.7922 deg
Mean motion: 14.85790645 rev/day
Decay rate: 4.259e-05 rev/day^2
Epoch rev: 23222
Checksum: 310
Satellite: SOHLA-1
Catalog number: 33496
Epoch time: 13129.83308454
Element set: 41
Inclination: 098.1309 deg
RA of node: 245.9620 deg
Eccentricity: 0.0007857
Arg of perigee: 088.3623 deg
Mean anomaly: 057.7743 deg
Mean motion: 14.70265218 rev/day
Decay rate: 4.00e-06 rev/day^2
Epoch rev: 23023
Checksum: 290
Satellite: SO-67
Catalog number: 35870
Epoch time: 13129.77379378
Element set: 42
Inclination: 097.1948 deg
RA of node: 159.8972 deg
Eccentricity: 0.0003833
Arg of perigee: 090.9659 deg
Mean anomaly: 023.9146 deg
Mean motion: 15.26747869 rev/day
Decay rate: 6.986e-05 rev/day^2
Epoch rev: 20239
Checksum: 377
Satellite: TISAT-1
Catalog number: 36799
Epoch time: 13129.80115334
Element set: 58
Inclination: 098.0347 deg
RA of node: 214.2655 deg
Eccentricity: 0.0014315
Arg of perigee: 187.6575 deg
Mean anomaly: 172.4410 deg
Mean motion: 14.83175985 rev/day
Decay rate: 2.981e-05 rev/day^2
Epoch rev: 15288
Checksum: 321
Satellite: STUDSAT
Catalog number: 36801
Epoch time: 13127.85546332
Element set: 625
Inclination: 098.0456 deg
RA of node: 215.0874 deg
Eccentricity: 0.0012644
Arg of perigee: 175.2412 deg
Mean anomaly: 323.3947 deg
Mean motion: 14.87867699 rev/day
Decay rate: 7.538e-05 rev/day^2
Epoch rev: 15273
Checksum: 324
Satellite: ALMASAT-1
Catalog number: 38078
Epoch time: 13129.77180023
Element set: 249
Inclination: 069.4783 deg
RA of node: 290.0606 deg
Eccentricity: 0.0707255
Arg of perigee: 196.2798 deg
Mean anomaly: 161.4494 deg
Mean motion: 14.22392723 rev/day
Decay rate: 3.7621e-04 rev/day^2
Epoch rev: 6377
Checksum: 328
Satellite: XATCOBEO
Catalog number: 38082
Epoch time: 13129.57776461
Element set: 138
Inclination: 069.4761 deg
RA of node: 269.8720 deg
Eccentricity: 0.0601777
Arg of perigee: 185.3087 deg
Mean anomaly: 174.1254 deg
Mean motion: 14.49539276 rev/day
Decay rate: 1.05051e-03 rev/day^2
Epoch rev: 6431
Checksum: 325
Satellite: SOMP
Catalog number: 39135
Epoch time: 13130.01391652
Element set: 30
Inclination: 064.8776 deg
RA of node: 328.4319 deg
Eccentricity: 0.0017426
Arg of perigee: 209.3607 deg
Mean anomaly: 150.9450 deg
Mean motion: 14.99963388 rev/day
Decay rate: 4.731e-05 rev/day^2
Epoch rev: 310
Checksum: 285
Satellite: CUBEBUG?
Catalog number: 39151
Epoch time: 13129.77609068
Element set: 47
Inclination: 098.0759 deg
RA of node: 205.5235 deg
Eccentricity: 0.0017372
Arg of perigee: 203.0517 deg
Mean anomaly: 156.9899 deg
Mean motion: 14.76333159 rev/day
Decay rate: 1.476e-05 rev/day^2
Epoch rev: 200
Checksum: 304
Satellite: CUBEBUG??
Catalog number: 39153
Epoch time: 13129.77602920
Element set: 40
Inclination: 098.0754 deg
RA of node: 205.5230 deg
Eccentricity: 0.0017844
Arg of perigee: 202.7675 deg
Mean anomaly: 157.2736 deg
Mean motion: 14.76342327 rev/day
Decay rate: 1.668e-05 rev/day^2
Epoch rev: 201
Checksum: 279
Satellite: ESTCUBE-1
Catalog number: 39161
Epoch time: 13129.81405116
Element set: 8
Inclination: 098.1286 deg
RA of node: 208.2723 deg
Eccentricity: 0.0009119
Arg of perigee: 227.2880 deg
Mean anomaly: 132.7448 deg
Mean motion: 14.68888227 rev/day
Decay rate: -2.05e-06 rev/day^2
Epoch rev: 36
Checksum: 288
/EX
SB KEPS @ AMSAT $ORB13129.W
Orbital Elements 13129.WEATHER
HR AMSAT ORBITAL ELEMENTS FOR WEATHER SATELLITES
FROM WA5QGD FORT WORTH,TX May 9, 2013
BID: ORB13129.W
TO ALL RADIO AMATEURS BT
